Probability
0 0 0 0 0 0 0 0 0 0 0 0 0 0 0 0 0 0 0 0 0 1 2 3 3 4 4 4 3 1 0 0 0 0 0 0 0 0 0 0 0 0 0 0
0 0 0 0 0 0 0 0 0 0 0 0 0 0 0 0 0 0 0 0 0 0 1 2 3 3 4 3 3 2 1 0 0 0 0 0 0 0 0 0 0 0 0 0
0 0 0 0 0 0 0 0 0 0 0 0 0 0 0 0 0 0 0 1 1 0 0 1 2 3 3 3 3 3 2 1 0 0 0 0 0 0 0 0 0 0 0 0
0 0 0 0 0 0 0 0 0 0 0 0 0 0 0 0 0 0 1 2 2 1 0 0 1 3 3 3 4 3 2 1 0 0 0 0 0 0 0 0 0 0 0 0
0 0 0 0 0 0 0 0 0 0 0 0 0 0 0 0 0 0 1 3 3 1 0 0 1 3 3 4 4 4 2 1 0 1 1 1 0 0 0 0 0 0 0 0
0 0 0 0 0 0 0 0 0 0 0 0 0 0 0 0 0 1 2 3 2 1 0 0 2 3 3 4 5 4 3 1 0 1 2 2 1 0 0 0 0 1 1 1
0 0 0 0 0 0 0 0 0 0 0 0 0 0 0 0 0 1 2 2 1 1 0 0 1 2 4 5 5 4 4 3 1 1 2 3 2 1 1 1 1 2 2 1
0 0 0 0 0 0 0 0 0 0 0 0 0 0 0 0 1 2 2 1 0 0 0 0 0 1 3 3 3 4 5 5 3 2 3 4 3 2 2 2 3 3 2 1
0 0 0 0 0 0 0 0 0 0 0 0 0 0 0 0 1 1 1 0 0 0 0 0 0 0 1 1 2 4 6 6 5 4 5 5 4 4 3 3 3 3 1 0
0 0 0 0 0 0 0 0 0 0 0 0 0 0 0 0 0 0 0 0 0 0 0 0 0 0 1 1 1 3 5 6 6 6 7 6 6 5 4 3 3 2 1 0
0 0 0 0 0 0 0 0 0 0 0 0 0 0 0 0 0 0 0 0 0 0 0 0 0 0 1 2 2 3 4 6 7 7 7 7 6 5 4 3 2 1 0 0
0 0 0 0 0 0 0 0 0 0 0 0 0 0 0 0 0 0 0 0 0 0 0 0 0 0 1 2 3 3 3 5 7 8 8 6 4 2 1 1 1 0 0 0
0 0 0 0 0 0 0 0 0 0 0 0 0 0 0 0 0 0 0 0 0 0 0 0 0 0 0 1 2 3 3 5 8 9 8 5 2 0 0 0 0 0 0 0
0 0 0 0 0 0 0 0 0 0 0 0 0 0 0 0 0 0 0 0 0 0 0 0 0 0 0 0 1 1 2 5 8 10 8 4 1 0 0 1 1 0 0 0
0 0 0 0 0 0 0 0 0 0 0 0 0 0 0 0 0 0 0 0 0 0 0 0 0 0 0 0 0 0 1 4 7 9 8 4 1 0 1 2 2 1 0 0
0 0 0 0 0 0 0 0 0 0 0 0 0 0 0 0 0 0 0 0 0 0 0 0 0 0 0 0 0 0 1 2 5 7 6 3 1 0 1 2 2 1 0 0
0 0 0 0 0 0 0 0 0 0 0 0 0 0 0 0 0 0 0 0 0 0 0 0 0 0 0 0 0 0 0 0 2 4 4 3 1 0 1 2 2 1 0 0
0 0 0 0 0 0 0 0 0 0 0 0 0 0 0 0 0 0 0 0 0 0 0 0 0 0 0 0 0 0 0 0 1 2 3 3 2 2 2 2 1 0 0 0
0 0 0 0 0 0 0 0 0 0 0 0 0 0 0 0 0 0 0 0 0 0 0 0 0 0 0 0 0 0 0 0 1 2 3 4 4 4 3 1 0 0 0 0
0 0 0 0 0 0 0 0 0 0 0 0 0 0 0 0 0 0 0 0 0 0 0 0 0 0 0 0 0 0 0 0 0 1 3 5 6 5 3 1 0 0 0 0
0 0 0 0 0 0 0 0 0 0 0 0 0 0 0 0 0 0 0 0 0 0 0 0 0 0 0 0 0 0 0 0 0 1 3 5 6 4 3 2 1 0 0 0
0 0 0 0 0 0 0 0 0 0 0 0 0 0 0 0 0 0 0 0 0 0 0 0 0 0 0 0 0 0 0 0 0 1 3 4 4 4 3 3 2 1 0 0
0 0 0 0 0 0 0 0 0 0 0 0 0 0 0 0 0 0 0 0 0 0 0 0 0 0 0 0 0 0 0 0 0 1 2 2 2 2 3 3 3 2 1 1
0 0 0 0 0 0 0 0 0 0 0 0 0 0 0 0 0 0 0 0 0 0 0 0 0 0 0 0 0 0 0 0 0 0 1 1 0 1 3 3 3 3 3 2
0 0 0 0 0 0 0 0 0 0 0 0 0 0 0 0 0 0 0 0 0 0 0 0 0 0 0 0 0 0 0 0 0 0 0 0 0 1 2 3 3 3 3 3
0 0 0 0 0 0 0 0 0 0 0 0 0 0 0 0 0 0 0 0 0 0 0 0 0 0 0 0 0 0 0 0 0 0 0 0 0 0 1 1 2 3 3 3
0 0 0 0 0 0 0 0 0 0 0 0 0 0 0 0 0 0 0 0 0 0 0 0 0 0 0 0 0 0 0 0 0 0 0 0 0 0 0 0 1 3 3 3
Wind_Speed
7 5 5 6 7 7 8 7 5 3 2 1 1 3 4 5 5 5 6 7 8 8 8 8 7 7 7 8 7 8 8 7 7 6 6 5 4 4 3 3 3 3 2 2
9 8 9 9 9 9 8 8 7 5 3 2 2 2 2 5 5 5 6 6 7 7 8 8 8 8 7 8 8 8 8 7 7 6 6 6 5 4 4 3 3 2 2 3
8 9 9 10 9 9 8 7 7 6 2 1 1 2 2 4 5 5 5 6 6 7 7 8 8 8 7 8 8 8 8 8 8 7 6 6 6 5 4 4 3 3 2 3
7 8 10 5 3 5 6 6 5 4 2 2 2 2 3 3 4 4 5 5 5 5 6 6 7 8 7 7 8 8 8 8 7 7 7 6 6 5 5 4 4 3 3 3
6 8 8 5 5 5 5 6 3 3 2 1 2 3 2 3 4 4 5 5 5 5 6 6 6 8 7 7 7 7 7 8 8 8 7 7 6 6 5 4 4 4 4 3
6 7 7 3 2 2 4 5 2 2 1 1 1 2 2 3 3 3 4 4 4 4 5 5 5 7 7 7 8 8 8 8 8 8 8 7 6 5 4 4 4 4 3 3
9 8 6 2 2 2 4 1 2 2 1 1 1 1 2 2 3 4 3 4 4 3 4 4 5 6 7 7 7 7 7 7 7 7 8 7 6 5 5 4 4 4 3 3
9 9 6 2 2 2 0 2 2 2 2 2 2 3 3 3 3 3 4 3 4 4 3 3 4 5 6 6 6 7 7 7 7 7 7 7 6 5 5 5 5 4 4 3
5 3 2 1 1 2 3 3 3 3 2 2 2 2 2 2 3 3 3 3 3 4 3 3 4 4 5 5 6 7 8 8 7 7 6 6 6 6 5 4 4 4 3 3
5 4 3 2 2 1 2 3 4 3 2 1 1 1 1 1 2 2 2 2 3 3 3 3 3 4 5 4 6 6 7 7 7 7 6 6 4 4 4 4 4 4 4 3
6 3 2 2 1 1 1 2 2 2 3 2 1 1 0 0 2 2 2 2 2 3 3 3 3 4 5 5 6 6 6 7 7 6 6 5 4 3 3 3 4 4 3 3
5 3 3 2 1 0 2 3 2 1 1 2 1 1 1 0 1 2 2 3 2 3 3 3 3 3 4 5 6 6 6 6 5 5 5 5 5 3 3 3 4 5 5 5
7 5 4 3 2 2 2 3 3 2 1 1 1 1 1 0 1 1 2 3 3 3 3 3 3 3 4 4 5 6 5 5 5 5 5 6 6 5 4 2 3 3 5 6
4 3 4 3 2 2 3 3 2 2 1 1 1 1 1 1 1 1 2 3 3 3 3 2 2 2 3 4 4 4 4 5 5 4 5 5 5 5 5 5 4 2 2 5
5 5 4 3 3 2 3 3 2 1 1 1 1 1 1 1 2 2 2 2 3 3 3 3 2 2 3 3 4 4 4 4 4 4 4 4 4 4 4 5 5 4 3 2
6 5 4 4 3 3 3 3 2 1 1 1 2 2 2 2 1 2 2 2 3 4 4 4 3 3 3 3 3 3 3 5 5 4 4 4 4 4 4 4 5 5 5 4
6 5 4 4 4 3 3 2 2 1 1 2 3 2 2 1 1 2 2 2 3 3 3 4 4 3 4 4 3 3 3 4 6 4 4 4 4 4 4 4 4 4 4 5
4 4 4 4 3 2 2 2 1 1 2 3 3 2 2 2 2 2 2 2 2 2 2 2 3 3 3 4 3 3 4 4 4 4 3 3 3 3 3 4 4 4 4 5
3 3 3 3 2 2 2 2 2 2 3 3 2 2 2 2 2 2 2 2 2 2 2 2 4 3 2 3 3 2 3 4 3 3 3 4 4 3 3 3 3 4 4 4
2 3 2 2 2 2 2 2 2 2 3 3 2 2 2 3 2 3 3 3 2 2 2 3 3 2 2 3 3 2 3 3 4 3 3 3 3 3 3 3 4 4 4 4
1 1 2 2 2 2 2 2 2 2 3 2 2 2 3 2 2 2 3 2 1 2 3 4 3 2 1 2 2 2 3 3 4 3 3 3 3 3 3 3 4 4 4 4
1 1 1 1 2 2 2 2 2 3 2 2 2 2 2 1 2 2 2 2 2 3 3 2 2 2 1 2 2 3 3 3 3 3 3 3 3 3 3 3 3 3 3 3
1 1 1 1 1 2 2 2 2 2 2 2 2 1 1 1 1 2 1 1 2 3 2 2 3 3 2 2 2 3 3 3 3 3 3 3 3 3 3 4 3 3 3 3
1 1 1 1 1 1 1 1 1 1 1 2 1 1 1 0 1 1 0 2 3 3 2 3 5 4 2 1 2 2 2 3 2 2 2 2 2 3 3 3 3 3 4 4
2 1 1 1 1 1 1 1 1 1 1 1 2 1 1 1 1 1 1 2 3 3 2 4 4 3 2 1 2 2 2 2 2 2 2 2 2 2 3 3 3 3 3 4
2 1 1 1 1 1 1 1 1 1 1 2 2 1 1 0 0 1 1 2 3 3 2 2 3 3 2 1 2 2 3 3 3 2 2 2 3 2 2 3 3 3 3 3
2 1 1 1 1 1 1 1 1 2 2 2 2 1 1 0 0 1 2 2 2 2 2 2 2 2 1 1 1 2 2 3 3 3 3 2 2 2 3 3 3 3 3 3
Wind_Direction
267 263 256 243 237 239 250 257 258 260 251 217 144 137 145 143 138 142 149 154 159 166 169 171 174 178 177 173 172 169 164 169 170 168 162 160 159 162 165 161 158 152 146 134
257 247 249 253 246 237 241 250 253 257 256 199 148 121 138 141 147 157 158 162 166 173 173 175 177 176 176 174 174 169 167 171 166 163 160 162 165 169 170 162 160 157 156 146
256 251 250 247 240 240 237 241 246 245 245 147 150 147 152 152 163 163 162 165 172 178 176 179 179 174 175 177 174 170 168 167 165 164 165 170 172 171 169 164 168 167 165 154
254 250 247 244 218 235 248 248 243 238 234 205 178 149 157 156 147 151 157 162 172 176 172 176 176 173 172 171 171 170 167 166 164 167 168 168 169 170 171 169 169 171 178 173
249 249 251 238 234 227 243 252 241 226 223 208 187 195 156 125 131 145 151 158 166 174 168 170 174 170 167 169 169 167 168 170 170 169 163 166 171 171 172 173 170 172 178 176
241 246 247 219 213 217 250 248 221 200 186 196 207 202 136 117 118 135 141 145 155 164 164 167 168 163 164 170 172 173 173 173 169 163 160 167 170 167 166 170 172 168 173 177
237 247 251 205 195 197 231 211 103 125 116 94 5 64 114 112 117 117 126 134 142 153 165 170 166 163 166 171 178 171 164 162 160 159 161 163 163 163 162 164 165 171 177 185
225 234 232 163 191 225 13 45 45 68 68 59 60 73 88 98 105 116 122 131 148 154 161 166 165 170 175 176 169 155 153 153 158 159 163 164 162 167 168 166 170 179 179 186
221 217 140 149 118 36 3 0 15 35 57 48 58 75 89 111 119 125 131 135 143 149 154 167 171 177 176 168 155 152 152 157 161 160 159 160 162 168 171 170 172 179 179 186
241 206 180 172 107 60 3 360 12 14 6 38 32 41 63 120 134 139 146 149 145 146 153 166 176 176 169 159 154 154 159 161 162 162 161 163 162 166 170 177 178 182 186 185
259 240 212 199 192 320 349 333 350 2 345 1 31 0 345 154 149 148 146 147 154 159 162 171 183 176 163 159 161 162 164 162 165 163 161 158 149 146 170 169 174 175 181 171
259 277 281 255 227 226 277 289 299 305 327 343 340 323 316 264 152 151 156 156 160 159 161 180 183 177 169 169 169 170 169 167 164 160 157 153 144 124 76 112 129 143 147 148
272 287 296 291 298 317 300 293 294 298 309 309 310 287 266 272 173 157 164 166 167 176 181 184 183 176 173 171 172 175 170 165 161 163 161 160 160 159 152 114 100 117 145 149
273 287 283 275 282 298 308 299 283 278 295 310 302 287 251 235 222 187 185 182 176 174 182 179 172 178 179 171 171 178 169 164 160 160 160 164 167 168 166 164 161 153 153 158
260 255 255 259 271 276 280 277 260 260 310 313 309 296 258 228 215 215 197 179 164 168 179 175 178 189 184 174 174 175 163 159 159 158 162 166 168 169 169 171 165 157 143 146
256 254 247 241 244 251 257 254 251 246 288 307 302 289 283 265 223 217 198 181 182 190 190 185 188 194 182 170 170 165 156 159 160 162 167 168 169 173 176 173 167 165 164 162
241 234 233 238 231 238 247 246 253 251 276 290 287 282 277 272 246 222 209 205 206 200 194 189 182 178 172 169 172 163 156 162 166 170 172 172 174 178 175 170 170 167 165 163
234 233 233 238 238 237 240 256 274 288 289 288 289 282 246 232 232 227 217 211 204 196 204 181 156 161 173 174 177 165 162 168 177 175 172 174 176 176 172 170 169 165 157 160
233 233 235 237 235 233 243 255 270 272 287 287 290 281 269 253 238 236 215 199 196 204 217 158 149 156 171 175 171 160 159 161 170 174 169 174 181 180 173 167 163 161 157 157
234 233 224 208 213 232 245 250 258 265 273 266 270 276 271 258 233 223 216 208 211 206 164 145 152 166 176 165 154 162 166 166 175 184 178 173 175 175 170 166 163 162 161 164
235 213 204 204 212 227 239 250 255 271 277 259 252 255 261 257 222 211 208 208 193 134 144 149 152 146 162 172 173 176 183 183 180 180 176 175 174 175 174 169 164 165 168 167
230 213 218 213 215 231 240 249 262 264 261 268 278 269 258 247 226 220 218 193 153 139 147 161 154 152 166 197 193 185 188 188 181 175 171 176 176 177 177 172 168 165 162 158
254 233 220 229 237 242 244 242 259 270 257 261 260 246 239 241 226 199 201 151 144 149 154 163 155 154 171 205 192 188 186 184 177 172 172 175 178 175 171 170 168 163 158 155
287 273 246 241 248 240 239 243 263 282 285 286 283 268 226 224 290 304 158 144 148 159 156 152 153 163 188 213 187 184 185 181 168 163 162 161 165 165 163 162 163 160 156 154
304 298 287 263 254 254 258 260 264 294 296 295 291 288 266 212 229 241 159 149 144 146 145 155 161 179 211 216 190 183 178 173 163 158 159 158 158 160 161 162 161 157 155 155
311 310 285 269 265 261 262 260 256 256 271 277 277 277 283 291 154 164 150 155 156 157 161 167 179 195 218 205 185 175 163 157 154 156 157 151 146 149 154 153 154 155 155 155
288 286 275 274 296 286 271 260 257 262 262 262 274 281 265 195 164 176 167 164 166 174 171 168 177 193 192 168 145 142 145 143 143 145 146 146 149 155 157 157 156 152 153 153